Back to catalog

COSMOS 864 DEB

AlivePO
NORAD 43294·DEBRIS·🇷🇺 Russia

Launched Oct 29, 1976 from Plesetsk Cosmodrome

Loading…

Next Passes (next 24 hours)

TLE

FreshSource: Space-Track

Epoch: Sep 13, 2026, 23:59 UTC

1 43294U 76108C   26256.99995672  .00000079  00000-0  65975-4 0  9993
2 43294  82.9367  82.7131 0028604 251.6363 108.1683 13.76090373637021

Track COSMOS 864 DEB in real time with AllMySat

Download on the App Store